TIANWANG 1A (TW-1A)
1 40928U 15051D   19284.81613432  .00002852  00000-0  70266-4 0  9999
2 40928  97.1375 313.5537 0011520  24.4504  60.9744 15.41324251226909
LAPAN A2
1 40931U 15052B   19284.50991012  .00000141  00000-0 -69845-4 0  9994
2 40931   6.0059 317.7712 0016039 338.4638  21.4786 14.76613481218269
LQSAT
1 40958U 15057A   19284.76598611 +.00000007 +00000-0 +86855-5 0  9995
2 40958 097.8880 350.7888 0017137 229.0529 130.9196 14.73091274215752
CHUBUSAT 2
1 41338U 16012B   19284.86746729 +.00000337 +00000-0 +19453-4 0  9991
2 41338 031.0024 132.7946 0013765 164.8686 195.2363 15.00191037200226
CHUBUSAT 3
1 41339U 16012C   19284.75704684  .00000282  00000-0  15087-4 0  9992
2 41339  31.0097 131.4430 0013483 171.6346 188.4542 15.00363125200207
OUFTI-1
1 41458U 16025C   19284.80529198 +.00001308 +00000-0 +70409-4 0  9998
2 41458 098.1007 017.5031 0164995 330.4045 028.7917 15.06073365189894
E-STAR-2
1 41459U 16025D   19284.84969265  .00001130  00000-0  61878-4 0  9999
2 41459  98.1001  17.1440 0166113 331.7568  27.4724 15.05699335189877
AAUSAT 4
1 41460U 16025E   19284.81137626  .00001290  00000-0  68339-4 0  9992
2 41460  98.0946  18.6431 0156442 323.3597  35.7033 15.07673704190012
NUSAT 1
1 41557U 16033B   19284.89516755 +.00001257 +00000-0 +49515-4 0  9998
2 41557 097.4151 011.7204 0012233 248.0997 111.8942 15.27431683187671
BEESAT 4
1 41619U 16040W   19284.60784710  .00001236  00000-0  54901-4 0  9994
2 41619  97.3559 344.6295 0010736 348.0653  12.0328 15.23357571171352
PRATHAM
1 41783U 16059A   19284.70544956 +.00000045 +00000-0 +17958-4 0  9991
2 41783 098.0551 341.6726 0034022 024.5750 335.7065 14.63013065162362
ALSAT 1N
1 41789U 16059G   19284.93755873 +.00000029 +00000-0 +14443-4 0  9992
2 41789 098.0578 344.1479 0028597 013.1865 347.0074 14.64266298162513
NAYIF 1
1 42017U 17008BX  19284.67417661 +.00001410 +00000-0 +58008-4 0  9993
2 42017 097.3924 350.5304 0007760 117.8943 242.3082 15.25779345147453
MAX VALIER SAT
1 42778U 17036P   19284.70774749  .00000866  00000-0  40665-4 0  9999
2 42778  97.3423 339.7717 0012591 172.9029 187.2388 15.22174811127732
